Weather reports worldwide

Advertisment
Formigueres, France (7737): temperature & dewpoint: 09.12.2018 07:00:00 - 15.12.2018 07:00:00 (CET)Formigueres, France (7737): wind speed & gusts: 09.12.2018 07:00:00 - 15.12.2018 07:00:00 (CET)Formigueres, France (7737): wind direction: 09.12.2018 07:00:00 - 15.12.2018 07:00:00 (CET)Formigueres, France (7737): precipitation: 09.12.2018 07:00:00 - 15.12.2018 07:00:00 (CET)
Date & Time tt [°C] td [°C] ff [km/h] ff [kn] fx [km/h] fx [kn] dd rr [mm]
15.12.2018 07:00:00 - - - - - - - -
15.12.2018 06:00:00 -3,1 -5,1 9 5 18 10 WSW 0,0
15.12.2018 05:00:00 -2,7 -4,9 5 3 21 11 WSW 0,0
15.12.2018 04:00:00 -2,1 -4,0 8 4 18 10 WSW 0,0
15.12.2018 03:00:00 -1,2 -4,4 8 4 28 15 S 0,0
15.12.2018 02:00:00 0,7 -3,4 18 10 42 23 N 0,0
15.12.2018 01:00:00 0,4 -3,2 16 9 50 27 N -
15.12.2018 00:00:00 1,5 -3,6 16 9 42 23 NNW 0,0
14.12.2018 23:00:00 1,6 -2,9 16 9 41 22 NNE 0,0
14.12.2018 22:00:00 1,4 -2,2 24 13 41 22 NE 0,0
14.12.2018 21:00:00 1,3 -1,9 15 8 35 19 NE 0,0
14.12.2018 20:00:00 1,2 -2,2 16 9 34 18 NE 0,0
14.12.2018 19:00:00 1,1 -2,0 15 8 37 20 ENE -
14.12.2018 18:00:00 1,3 -1,4 8 4 18 10 SSE 0,0
14.12.2018 17:00:00 1,5 -1,2 4 2 22 12 SSE 0,0
14.12.2018 16:00:00 1,7 -1,0 8 4 34 18 SSW 0,0
14.12.2018 15:00:00 1,5 -1,1 13 7 34 18 NE 0,0
14.12.2018 14:00:00 2,3 -0,6 13 7 35 19 NNE 0,0
14.12.2018 13:00:00 1,4 -0,7 16 9 39 21 N -
14.12.2018 12:00:00 0,9 -0,4 15 8 42 23 N 0,0
14.12.2018 11:00:00 0,7 -0,8 22 12 39 21 NNE 0,0
14.12.2018 10:00:00 0,7 -0,9 22 12 39 21 N 0,0
14.12.2018 09:00:00 0,0 -0,9 21 11 44 24 NNE 0,0
14.12.2018 08:00:00 -0,3 -1,0 22 12 46 25 NNE 0,2
14.12.2018 07:00:00 -0,3 -1,1 26 14 55 30 NNE -
14.12.2018 06:00:00 -0,1 -0,8 22 12 48 26 NNE 0,2
14.12.2018 05:00:00 0,2 -0,8 16 9 37 20 NNE 0,0
14.12.2018 04:00:00 0,3 -0,6 13 7 34 18 N 0,2
14.12.2018 03:00:00 0,2 -0,8 9 5 26 14 N 0,0
14.12.2018 02:00:00 0,1 -0,8 16 9 29 16 N 0,0
14.12.2018 01:00:00 0,1 -0,8 15 8 31 17 N -
14.12.2018 00:00:00 0,1 -0,6 18 10 39 21 N 0,0
13.12.2018 23:00:00 -0,1 -0,7 16 9 37 20 N 0,0
13.12.2018 22:00:00 -0,2 -0,6 18 10 41 22 N 0,2
13.12.2018 21:00:00 -0,4 -0,8 28 15 48 26 N 0,2
13.12.2018 20:00:00 -0,3 -0,7 26 14 41 22 N 0,2
13.12.2018 19:00:00 -0,3 -0,9 22 12 37 20 N -
13.12.2018 18:00:00 -0,1 -0,7 22 12 34 18 N 0,0
13.12.2018 17:00:00 0,1 -0,5 16 9 24 13 N 0,2
13.12.2018 16:00:00 0,8 -0,1 11 6 21 11 NE 0,2
13.12.2018 15:00:00 1,3 0,3 9 5 18 10 NE 0,6
13.12.2018 14:00:00 2,3 0,7 8 4 16 9 N 0,8
13.12.2018 13:00:00 3,8 -0,8 2 1 18 10 E -
13.12.2018 12:00:00 5,5 -1,9 11 6 24 13 SW 0,0
13.12.2018 11:00:00 4,6 -0,2 4 2 16 9 S 0,0
13.12.2018 10:00:00 2,5 -0,9 5 3 18 10 WSW 0,0
13.12.2018 09:00:00 0,8 -2,1 15 8 21 11 W 0,0
13.12.2018 08:00:00 0,2 -2,2 11 6 18 10 WSW 0,0
13.12.2018 07:00:00 1,1 -1,1 9 5 18 10 WSW -
13.12.2018 06:00:00 0,9 -1,0 4 2 13 7 W 0,0
13.12.2018 05:00:00 0,8 -1,3 2 1 13 7 W 0,0
13.12.2018 04:00:00 0,7 -1,2 9 5 15 8 WSW 0,0
13.12.2018 03:00:00 1,4 -0,8 4 2 13 7 W 0,0
13.12.2018 02:00:00 0,9 -1,0 9 5 15 8 WSW 0,0
13.12.2018 01:00:00 0,6 -0,7 5 3 13 7 W -
13.12.2018 00:00:00 0,2 -0,7 5 3 9 5 WSW 0,0
12.12.2018 23:00:00 0,1 -0,8 0 0 8 4 N 0,0
12.12.2018 22:00:00 0,5 -0,4 5 3 9 5 SE 0,0
12.12.2018 21:00:00 0,3 -0,4 0 0 8 4 N 0,0
12.12.2018 20:00:00 0,4 -0,5 5 3 13 7 NNW 0,0
12.12.2018 19:00:00 0,2 -0,7 4 2 29 16 NNW -
12.12.2018 18:00:00 0,5 -0,6 16 9 29 16 N 0,0
12.12.2018 17:00:00 1,2 -0,3 2 1 11 6 NE 0,0
12.12.2018 16:00:00 1,3 -0,2 8 4 28 15 NNE 0,0
12.12.2018 15:00:00 1,8 0,6 16 9 35 19 N 0,0
12.12.2018 14:00:00 3,2 1,4 22 12 42 23 N 0,0
12.12.2018 13:00:00 6,6 0,7 29 16 48 26 N -
12.12.2018 12:00:00 8,2 -1,6 15 8 34 18 N 0,0
12.12.2018 11:00:00 8,2 -2,2 15 8 46 25 N 0,0
12.12.2018 10:00:00 4,6 -5,5 5 3 21 11 NE 0,0
12.12.2018 09:00:00 0,2 -8,3 9 5 28 15 NE 0,0
12.12.2018 08:00:00 1,9 -9,1 4 2 37 20 WSW 0,0
12.12.2018 07:00:00 1,3 -7,0 8 4 18 10 WNW -
12.12.2018 06:00:00 4,6 -7,9 11 6 28 15 NNE 0,0
12.12.2018 05:00:00 2,5 -5,6 11 6 29 16 NNE 0,0
12.12.2018 04:00:00 0,7 -4,5 5 3 22 12 NNW 0,0
12.12.2018 03:00:00 1,1 -4,8 4 2 15 8 SSE 0,0
12.12.2018 02:00:00 0,6 -4,8 5 3 16 9 SW 0,0
12.12.2018 01:00:00 -1,4 -5,3 4 2 9 5 SW -
12.12.2018 00:00:00 -0,9 -5,7 4 2 18 10 W 0,0
11.12.2018 23:00:00 -0,4 -5,2 9 5 22 12 W 0,0
11.12.2018 22:00:00 0,4 -5,6 5 3 24 13 SW 0,0
11.12.2018 21:00:00 0,5 -5,5 8 4 22 12 W 0,0
11.12.2018 20:00:00 0,8 -5,9 11 6 22 12 WSW 0,0
11.12.2018 19:00:00 1,6 -5,8 8 4 26 14 W -
11.12.2018 18:00:00 2,4 -5,7 15 8 24 13 W 0,0
11.12.2018 17:00:00 4,8 -5,3 11 6 18 10 WSW 0,0
11.12.2018 16:00:00 8,3 -7,1 9 5 24 13 N 0,0
11.12.2018 15:00:00 9,0 -6,8 16 9 39 21 N 0,0
11.12.2018 14:00:00 8,8 -8,3 24 13 42 23 NNE 0,0
11.12.2018 13:00:00 10,3 -5,7 13 7 28 15 NNE -
11.12.2018 12:00:00 8,3 -6,7 8 4 16 9 NE 0,0
11.12.2018 11:00:00 5,9 -1,5 2 1 8 4 NE 0,0
11.12.2018 10:00:00 2,5 -3,4 2 1 9 5 ESE 0,0
11.12.2018 09:00:00 -1,6 -6,4 9 5 16 9 WSW 0,0
11.12.2018 08:00:00 -2,1 -7,0 4 2 16 9 SW 0,0
11.12.2018 07:00:00 -2,6 -8,3 4 2 21 11 WNW -
11.12.2018 06:00:00 -2,3 -7,2 8 4 16 9 WSW 0,0
11.12.2018 05:00:00 -1,0 -7,2 9 5 16 9 WSW 0,0
11.12.2018 04:00:00 -2,1 -7,6 8 4 15 8 WSW 0,0
11.12.2018 03:00:00 -3,0 -9,7 2 1 11 6 NNW 0,0
11.12.2018 02:00:00 -2,8 -10,6 5 3 11 6 WSW 0,0
11.12.2018 01:00:00 -2,7 -10,3 4 2 13 7 WSW -
11.12.2018 00:00:00 -2,3 -9,9 9 5 16 9 WSW 0,0
10.12.2018 23:00:00 -3,0 -7,0 4 2 13 7 WSW 0,0
10.12.2018 22:00:00 -3,9 -5,0 5 3 13 7 S 0,0
10.12.2018 21:00:00 -3,6 -5,6 2 1 8 4 NNE 0,0
10.12.2018 20:00:00 -3,5 -4,6 2 1 11 6 WSW 0,0
10.12.2018 19:00:00 -1,7 -2,5 5 3 13 7 SW -
10.12.2018 18:00:00 -0,7 -2,3 4 2 15 8 NE 0,0
10.12.2018 17:00:00 1,0 -1,9 9 5 21 11 NE 0,0
10.12.2018 16:00:00 4,9 -2,9 9 5 28 15 NE 0,0
10.12.2018 15:00:00 7,3 -9,2 9 5 22 12 ENE 0,0
10.12.2018 14:00:00 6,6 -4,5 11 6 28 15 NNE 0,0
10.12.2018 13:00:00 5,4 -5,0 13 7 24 13 NNE -
10.12.2018 12:00:00 6,3 -5,1 9 5 22 12 NNE 0,0
10.12.2018 11:00:00 3,4 -5,3 2 1 11 6 N 0,0
10.12.2018 10:00:00 0,4 -5,6 4 2 18 10 NNW 0,0
10.12.2018 09:00:00 0,1 -7,2 8 4 29 16 SSE 0,0
10.12.2018 08:00:00 1,4 -7,7 11 6 44 24 NE 0,0
10.12.2018 07:00:00 3,1 -10,6 13 7 39 21 N -
10.12.2018 06:00:00 1,9 -6,4 16 9 41 22 NNW 0,0
10.12.2018 05:00:00 2,0 -5,9 15 8 48 26 N 0,0
10.12.2018 04:00:00 2,3 -5,6 21 11 42 23 N 0,0
10.12.2018 03:00:00 2,5 -5,2 21 11 44 24 NW 0,0
10.12.2018 02:00:00 2,3 -4,5 21 11 48 26 NW 0,0
10.12.2018 01:00:00 2,2 -4,3 16 9 44 24 WNW -
10.12.2018 00:00:00 2,6 -4,2 22 12 52 28 N 0,0
09.12.2018 23:00:00 2,2 -3,9 24 13 67 36 N 0,0
09.12.2018 22:00:00 3,6 -3,7 28 15 76 41 N 0,0
09.12.2018 21:00:00 3,9 -3,2 21 11 68 37 NNE 0,0
09.12.2018 20:00:00 4,5 -3,3 21 11 80 43 N 0,0
09.12.2018 19:00:00 4,5 -3,3 18 10 81 44 NE -
09.12.2018 18:00:00 4,8 -2,5 26 14 91 49 NE 0,0
09.12.2018 17:00:00 6,3 -4,2 28 15 80 43 NNE 0,0
09.12.2018 16:00:00 7,5 -3,7 29 16 81 44 NNE 0,0
09.12.2018 15:00:00 7,1 0,1 41 22 83 45 NNE 0,0
09.12.2018 14:00:00 11,2 -8,1 11 6 70 38 ENE 0,0
09.12.2018 13:00:00 11,6 -13,4 22 12 104 56 W -
09.12.2018 12:00:00 11,1 -13,1 35 19 109 59 W 0,0
09.12.2018 11:00:00 10,9 -14,0 28 15 93 50 W 0,0
09.12.2018 10:00:00 10,5 -12,2 18 10 48 26 NE 0,0
09.12.2018 09:00:00 8,3 -10,6 11 6 55 30 ESE 0,0
09.12.2018 08:00:00 8,0 -8,6 9 5 54 29 ENE 0,0
09.12.2018 07:00:00 7,7 -6,8 11 6 59 32 NNE -

tt = temperature
td = dewpoint
ff = wind speed
fx = gusts
dd = wind direction
rr = precipitation

Next stations